Location: Austin
(30.3000°N, 97.7500°W)
Time: 05:14:10
(UTC-06:00)

CARTOSAT-1 - Pass Details

Date: 03 March 2026
Orbit: 594 x 597 km, 97.5° (Epoch: 5 March)

Event Time Altitude Azimuth Distance (km) Brightness Sun altitude
Rises 19:04:40 0° 156° (SSE) 2,819 6.7 -8.0°
Reaches altitude 10° 19:06:52 10° 151° (SSE) 1,920 5.8 -8.4°
Maximum altitude 19:10:54 50° 76° (ENE) 755 3.6 -9.3°
Drops below altitude 10° 19:14:57 10° 0° (N) 1,930 6.1 -10.2°
Sets 19:17:10 0° 356° (N) 2,835 7.0 -10.7°
